Location: Bartlow
(52.0833°N, 0.3167°E)
Time: 12:00:17
(UTC+00:00)

CENTAUR R/B - Pass Details

Date: 26 September 2023
Orbit: 693 x 1493 km, 63.4° (Epoch: 07 December)

Event Time Altitude Azimuth Distance (km) Brightness Sun altitude
Rises 00:07:54 0° 314° (NW) 4,189 6.2 -38.8°
Reaches altitude 10° 00:10:44 10° 307° (NW) 3,321 5.5 -38.8°
Enters shadow 00:14:29 27° 288° (WNW) 2,375 4.5 -38.7°
